Flag for U.S.A. Weather past 2 weeks in Dayton, Ohio, U.S.A.

Now
75 °F

Sunny.


Feels Like: 75 °F
Forecast: 67 / 86 °F
Wind: No wind

Location: Dayton / Wright-Patterson Air Force Base

Current Time: Sep 1, 2015 at 10:41:53 AM

Latest Report: Sep 1, 2015 at 9:58 AM


Visibility: 7 mi

Pressure: 30.14 "Hg

Humidity: 87%

Dew point: 71 °F

Location of DaytonLocation

Historic Weather in Dayton — Graph

°F

Dayton temperature yesterday

Maximum temperature yesterday: 86 °F (at 4:58 PM)
Minimum temperature yesterday: 65 °F (at 6:58 AM)
Average temperature yesterday: 74 °F

Past Weeks' High & Low Weather Summary

 TemperatureHumidityPressure
High86 °F (Aug 31, 4:58 PM)100% (Aug 18, 6:58 AM)30.21 "Hg (Aug 18, 6:58 AM)
Low53 °F (Aug 25, 6:58 AM)38% (Aug 21, 4:58 PM)29.78 "Hg (Aug 19, 4:58 PM)
Average70 °F75%30.04 "Hg
* Reported Aug 17 8:58 AM — Sep 1 8:58 AM, Dayton, Weather by CustomWeather, © 2015

Note: Actual official high and low records may vary slightly from our data, if they occured in-between our weather recording intervals... More about our weather records

Advertising

Dayton weather history for previous 24 hours

 ConditionsComfort  
Time TempWeatherWind HumidityBarometerVisibility
8:58 AM
Tue, Sep 1
72 °FFog.2 mph91%30.14 "Hg6 mi
7:58 AM67 °FFog.2 mph98%30.14 "Hg5 mi
6:58 AM65 °FFog.No wind100%30.12 "Hg3 mi
5:58 AM66 °FClear.2 mph99%30.11 "Hg10 mi
4:58 AM67 °FClear.No wind98%30.10 "Hg10 mi
3:58 AM68 °FClear.2 mph95%30.09 "Hg10 mi
2:58 AM69 °FClear.2 mph93%30.10 "Hg10 mi
1:58 AM68 °FClear.No wind98%30.10 "Hg10 mi
12:58 AM71 °FClear.2 mph92%30.10 "Hg10 mi
10:58 PM
Mon, Aug 31
73 °FClear.3 mph89%30.10 "Hg10 mi
9:58 PM72 °FClear.No wind93%30.09 "Hg9 mi
8:58 PM75 °FScattered clouds.No wind85%30.07 "Hg10 mi
7:58 PM76 °FBroken clouds.5 mph83%30.06 "Hg10 mi
6:58 PM79 °FThundershowers. Broken clouds.3 mph73%30.06 "Hg10 mi
4:58 PM86 °FScattered clouds.10 mph53%30.05 "Hg10 mi
3:58 PM86 °FPassing clouds.5 mph51%30.06 "Hg10 mi
2:58 PM85 °FScattered clouds.7 mph58%30.08 "Hg10 mi
1:58 PM85 °FScattered clouds.3 mph58%30.09 "Hg10 mi
12:58 PM83 °FScattered clouds.5 mph64%30.11 "Hg10 mi
11:58 AM80 °FScattered clouds.3 mph73%30.13 "Hg10 mi
10:58 AM77 °FPassing clouds.5 mph79%30.13 "Hg10 mi
Weather by CustomWeather, © 2015

See weather overviewHow to use our weather pages